Location: Carrières
(48.9495°N, 2.0407°E)
Time: 19:40:04
(UTC+00:00)

Cosmos 2082 - Pass Details

Date: 28 January 2023
Orbit: 834 x 854 km, 71.0° (Epoch: 25 March)

Event Time Altitude Azimuth Distance (km) Brightness Sun altitude
Rises 17:13:29 0° 333° (NNW) 3,398 6.9 -5.5°
Reaches altitude 10° 17:15:59 10° 337° (NNW) 2,459 6.2 -5.9°
Maximum altitude 17:21:34 61° 57° (ENE) 950 3.7 -6.8°
Drops below altitude 10° 17:27:06 10° 138° (SE) 2,442 5.9 -7.6°
Sets 17:29:34 0° 142° (SE) 3,373 6.6 -8.0°
